Weather History for Marion, IN

Change the Weather History Date:

Friday, July 19, 2013

  Actual Average (KMIE) Record (KMIE)
Temperature  
Mean Temperature 79 °F 74 °F  
Max Temperature 87 °F 85 °F 95 °F (1977)
Min Temperature 71 °F 64 °F 48 °F (1984)
Degree Days  
Heating Degree Days 0 0  
Month to date heating degree days 0  
Since 1 June heating degree days 24  
Since 1 July heating degree days 0  
Cooling Degree Days 14 9  
Month to date cooling degree days 189  
Year to date cooling degree days 488  
Since 1 June cooling degree days 405  
Growing Degree Days 29 (Base 50)    
Moisture  
Dew Point 70 °F    
Average Humidity 74    
Maximum Humidity 92    
Minimum Humidity 57    
Precipitation  
Precipitation 0.00 in 0.14 in 1.87 in (1989)
Month to date precipitation 2.78  
Year to date precipitation 23.01  
Sea Level Pressure  
Sea Level Pressure 29.97 in    
Wind  
Wind Speed 7 mph (SW)    
Max Wind Speed 16 mph    
Max Gust Speed 23 mph    
Visibility 7 miles    
Events      
T = Trace of Precipitation, MM = Missing Value Source: NWS Daily Summary

Daily Weather History Graph

Daily Weather History Graph

Search for Another Location

Airport:

Trip Planner

Search our weather history database for the weather conditions in past years. The results will help you decide how hot, cold, wet, or windy it might be!

Date:

Astronomy

Jul. 19, 2013 Rise Set
Actual Time 6:28 AM EDT 9:09 PM EDT
Civil Twilight 5:56 AM EDT 9:40 PM EDT
Nautical Twilight 5:16 AM EDT 10:20 PM EDT
Astronomical Twilight 4:31 AM EDT 11:05 PM EDT
Moon 6:10 PM EDT (7/19) 3:09 AM EDT (7/19)
Length of Visible Light 15h 44m
Length of Day
14h 40m
Waxing Gibbous, 86% of the Moon is Illuminated
Jul 19
Waxing Gibbous
Jul 22
Full
Jul 29
Last Quarter
Aug 6
New
Aug 14
First Quarter

Hourly Weather History & Observations

Time (EDT) Temp. Heat Index Dew Point Humidity Pressure Visibility Wind Dir Wind Speed Gust Speed Precip Events Conditions
12:15 AM 74.3 °F - 69.8 °F 86% 30.06 in 10.0 mi WSW 3.5 mph - N/A   Clear
12:35 AM 74.1 °F - 69.6 °F 86% 30.05 in 10.0 mi SW 4.6 mph - N/A   Clear
12:55 AM 74.3 °F - 69.1 °F 84% 30.05 in 7.0 mi SW 4.6 mph - N/A   Clear
1:15 AM 73.4 °F - 68.9 °F 86% 30.05 in 7.0 mi SW 3.5 mph - N/A   Clear
1:35 AM 72.5 °F - 68.9 °F 88% 30.04 in 10.0 mi SSW 4.6 mph - N/A   Clear
1:55 AM 72.1 °F - 68.7 °F 89% 30.04 in 10.0 mi SSW 5.8 mph - N/A   Clear
2:15 AM 72.1 °F - 68.7 °F 89% 30.04 in 10.0 mi SSW 3.5 mph - N/A   Clear
2:35 AM 71.6 °F - 68.4 °F 89% 30.03 in 7.0 mi SSW 3.5 mph - N/A   Clear
2:55 AM 71.6 °F - 68.5 °F 90% 30.03 in 7.0 mi SSW 3.5 mph - N/A   Clear
3:15 AM 71.6 °F - 68.5 °F 90% 30.02 in 7.0 mi SSW 4.6 mph - N/A   Clear
3:35 AM 72.0 °F - 68.9 °F 90% 30.02 in 7.0 mi SSW 4.6 mph - N/A   Clear
3:55 AM 72.0 °F - 68.9 °F 90% 30.01 in 7.0 mi SSW 5.8 mph - N/A   Clear
4:15 AM 72.1 °F - 68.9 °F 89% 30.01 in 7.0 mi SSW 4.6 mph - N/A   Clear
4:35 AM 71.4 °F - 68.5 °F 91% 30.00 in 5.0 mi SSW 4.6 mph - N/A   Clear
4:55 AM 71.1 °F - 68.5 °F 92% 30.00 in 5.0 mi South 3.5 mph - N/A   Clear
5:15 AM 71.6 °F - 68.9 °F 91% 30.00 in 7.0 mi SSW 5.8 mph - N/A   Clear
5:35 AM 71.8 °F - 68.9 °F 91% 30.00 in 7.0 mi SSW 4.6 mph - N/A   Clear
5:55 AM 71.6 °F - 68.9 °F 91% 30.01 in 7.0 mi SSW 4.6 mph - N/A   Clear
6:15 AM 71.6 °F - 68.9 °F 91% 30.01 in 5.0 mi SSW 5.8 mph - N/A   Clear
6:35 AM 71.8 °F - 69.3 °F 92% 30.01 in 4.0 mi SSW 5.8 mph - N/A   Clear
6:55 AM 72.0 °F - 69.4 °F 92% 30.00 in 5.0 mi SSW 5.8 mph - N/A   Clear
7:15 AM 72.5 °F - 70.0 °F 92% 30.01 in 4.0 mi SSW 5.8 mph - N/A   Clear
7:35 AM 73.2 °F - 70.7 °F 92% 30.01 in 4.0 mi SW 4.6 mph - N/A   Clear
7:55 AM 74.3 °F - 71.4 °F 91% 30.01 in 5.0 mi SW 5.8 mph - N/A   Clear
8:15 AM 75.7 °F - 72.0 °F 88% 30.01 in 7.0 mi SW 8.1 mph - N/A   Clear
8:35 AM 76.8 °F - 72.5 °F 86% 30.01 in 5.0 mi SW 8.1 mph - N/A   Clear
8:55 AM 77.9 °F - 72.7 °F 84% 30.01 in 5.0 mi SW 9.2 mph - N/A   Haze
9:15 AM 79.0 °F - 72.9 °F 81% 30.01 in 7.0 mi SW 8.1 mph - N/A   Clear
9:35 AM 80.1 °F 84.4 °F 73.2 °F 80% 30.02 in 7.0 mi SW 10.4 mph - N/A   Clear
9:55 AM 81.0 °F 85.8 °F 73.2 °F 77% 30.02 in 7.0 mi WSW 10.4 mph 17.3 mph N/A   Clear
10:15 AM 81.7 °F 87.1 °F 73.4 °F 76% 30.01 in 10.0 mi WSW 11.5 mph - N/A   Clear
10:35 AM 82.8 °F 88.4 °F 73.0 °F 72% 30.02 in 7.0 mi WSW 12.7 mph - N/A   Clear
10:55 AM 83.5 °F 89.7 °F 73.2 °F 71% 30.02 in 7.0 mi WSW 10.4 mph - N/A   Clear
11:15 AM 84.4 °F 91.0 °F 73.2 °F 69% 30.01 in 10.0 mi West 10.4 mph 16.1 mph N/A   Clear
11:35 AM 84.9 °F 91.4 °F 72.9 °F 67% 30.01 in 7.0 mi WSW 15.0 mph - N/A   Clear
11:55 AM 85.3 °F 92.2 °F 73.0 °F 67% 30.01 in 10.0 mi WSW 15.0 mph 19.6 mph N/A   Scattered Clouds
12:15 PM 85.6 °F 92.2 °F 72.9 °F 65% 30.01 in 10.0 mi WSW 12.7 mph 17.3 mph N/A   Scattered Clouds
12:35 PM 85.8 °F 91.8 °F 72.0 °F 63% 30.01 in 7.0 mi West 16.1 mph 20.7 mph N/A   Mostly Cloudy
12:55 PM 85.8 °F 91.8 °F 71.8 °F 63% 30.00 in 7.0 mi West 11.5 mph 19.6 mph N/A   Scattered Clouds
1:15 PM 86.0 °F 92.6 °F 72.5 °F 64% 29.99 in 10.0 mi West 11.5 mph 17.3 mph N/A   Scattered Clouds
1:35 PM 86.7 °F 92.5 °F 71.2 °F 60% 29.98 in 7.0 mi WSW 16.1 mph 23.0 mph N/A   Scattered Clouds
1:55 PM 86.9 °F 92.9 °F 71.6 °F 60% 29.97 in 10.0 mi WSW 12.7 mph 17.3 mph N/A   Clear
2:15 PM 87.3 °F 94.0 °F 72.3 °F 61% 29.96 in 7.0 mi WSW 11.5 mph 17.3 mph N/A   Scattered Clouds
2:35 PM 87.4 °F 93.5 °F 71.4 °F 59% 29.96 in 10.0 mi WSW 13.8 mph 20.7 mph N/A   Scattered Clouds
2:55 PM 87.8 °F 93.8 °F 71.6 °F 58% 29.95 in 7.0 mi SW 15.0 mph 21.9 mph N/A   Scattered Clouds
3:15 PM 87.4 °F 93.1 °F 71.2 °F 58% 29.94 in 7.0 mi WSW 13.8 mph 20.7 mph N/A   Mostly Cloudy
3:35 PM 87.8 °F 93.4 °F 71.1 °F 57% 29.93 in 7.0 mi WSW 15.0 mph 20.7 mph N/A   Scattered Clouds
3:55 PM 87.8 °F 93.8 °F 71.2 °F 58% 29.92 in 10.0 mi WSW 13.8 mph 21.9 mph N/A   Scattered Clouds
4:15 PM 87.8 °F 93.4 °F 71.1 °F 57% 29.91 in 10.0 mi WSW 16.1 mph 21.9 mph N/A   Scattered Clouds
4:35 PM 87.8 °F 93.4 °F 70.9 °F 57% 29.91 in 10.0 mi WSW 12.7 mph 17.3 mph N/A   Scattered Clouds
4:55 PM 87.8 °F 93.4 °F 70.9 °F 57% 29.90 in 7.0 mi WSW 13.8 mph 20.7 mph N/A   Scattered Clouds
5:15 PM 87.8 °F 93.4 °F 70.7 °F 57% 29.89 in 10.0 mi WSW 15.0 mph 18.4 mph N/A   Scattered Clouds
5:35 PM 87.8 °F 93.8 °F 71.2 °F 58% 29.89 in 7.0 mi WSW 12.7 mph 19.6 mph N/A   Clear
5:55 PM 87.8 °F 93.4 °F 70.9 °F 57% 29.89 in 7.0 mi WSW 12.7 mph 18.4 mph N/A   Clear
6:15 PM 87.3 °F 92.4 °F 70.3 °F 57% 29.89 in 5.0 mi WSW 11.5 mph 18.4 mph N/A   Haze
6:35 PM 87.3 °F 92.4 °F 70.2 °F 57% 29.88 in 7.0 mi WSW 10.4 mph 16.1 mph N/A   Clear
6:55 PM 86.7 °F 91.7 °F 70.5 °F 58% 29.88 in 5.0 mi WSW 11.5 mph - N/A   Haze
7:15 PM 86.2 °F 90.7 °F 70.0 °F 58% 29.88 in 7.0 mi WSW 11.5 mph - N/A   Clear
7:35 PM 85.6 °F 90.1 °F 69.6 °F 59% 29.88 in 7.0 mi WSW 12.7 mph - N/A   Clear
7:55 PM 84.9 °F 89.4 °F 70.0 °F 61% 29.88 in 5.0 mi WSW 10.4 mph - N/A   Haze
8:15 PM 83.8 °F 88.1 °F 70.0 °F 63% 29.89 in 7.0 mi SW 8.1 mph - N/A   Clear
8:35 PM 82.6 °F 86.4 °F 69.8 °F 65% 29.89 in 5.0 mi SW 6.9 mph - N/A   Haze
8:55 PM 81.5 °F 84.8 °F 69.3 °F 66% 29.89 in 10.0 mi SW 8.1 mph - N/A   Clear
9:15 PM 80.2 °F 83.2 °F 69.1 °F 69% 29.89 in 7.0 mi SW 8.1 mph - N/A   Clear
9:35 PM 79.3 °F - 69.4 °F 72% 29.89 in 7.0 mi SW 6.9 mph - N/A   Clear
9:55 PM 78.8 °F - 69.3 °F 72% 29.89 in 10.0 mi SW 8.1 mph - N/A   Clear
10:15 PM 78.4 °F - 68.9 °F 72% 29.89 in 7.0 mi SW 8.1 mph - N/A   Clear
10:35 PM 77.9 °F - 68.9 °F 74% 29.89 in 10.0 mi SW 8.1 mph - N/A   Clear
10:55 PM 77.9 °F - 68.9 °F 74% 29.89 in 10.0 mi SW 9.2 mph - N/A   Clear
11:15 PM 78.1 °F - 68.9 °F 73% 29.89 in 7.0 mi SW 8.1 mph - N/A   Clear
11:35 PM 77.7 °F - 68.9 °F 74% 29.89 in 7.0 mi SW 8.1 mph - N/A   Clear
11:55 PM 77.9 °F - 69.1 °F 74% 29.90 in 10.0 mi SW 10.4 mph - N/A   Clear